www.pogodaiklimat.ru

Погода и климат >> Архив погоды >> Россия >> Хакасия >> Таштып


ПОГОДА в Таштыпе

  • Прогноз погоды в Таштыпе
  • Монитор погоды в Таштыпе

АРХИВ ПОГОДЫ в Таштыпе

Время (UTC), дата Ветер
(напр.,м/с)
 
Видим.   Явления Облачность Т
(С)
Тd
(С)
f
(%)
Тe
(С)
Тes
(С)
Комфортность P
(гПа)
Po
(гПа)
Тmin
(С)
Tmax
(С)
R
(мм)
R24
(мм)
S
(см)
21 15.04 СВ 3 700 м ливневой снег 10/10 1000 м
[Cb cap]
-3.3 -3.4 99 -9 -9 1003.5 948.3
00 16.04 СВ 3 4000 м слаб. ливневой снег 10/10 1000 м
[Cb cap]
-3.6 -3.4 100 -9 -9 1003.0 947.8 -3.6 17 28
03 16.04 В 2 1000 м ливневой снег 10/10 1000 м
[Cb cap]
-2.7 -3.1 97 -7 -7 1005.0 949.9
06 16.04 Ю 2 4000 м слаб. ливневой снег 10/10 1000 м
[Cb cap]
-1.1 -1.5 97 -5 -5 1008.8 953.7
09 16.04 ЮЗ 4 20 км {ливн. осадки} 8/5 1000 м
[Cb cap Ac trans]
+1.1 -0.6 88 -4 -3 1009.7 955.1
12 16.04 ЮЗ 2 10 км {ливн. осадки} 9/9 1110 м
[Cb cap]
+1.6 +0.2 90 -2 -2 1012.1 957.3 +2.0 5
15 16.04 З 3 50 км 8/8 1140 м
[Cb cap]
+0.6 -3.7 73 -4 -4 1014.5 959.4
18 16.04 Ю 2 50 км 1/1 1000 м
[Cb cap]
-2.6 -5.6 80 -7 -7 1017.1 961.3
21 16.04 ЮЗ 2 50 км ясно -6.1 -6.5 97 -11 -11 1018.7 962.0
00 17.04 ЮЗ 2 50 км ясно -9.9 -10.3 97 -14 -14 1020.1 962.5 -9.9 23
03 17.04 Ю 1 50 км 8/0
[Ac trans]
-3.4 -7.3 74 -5 -1 1017.8 961.8 -10.1
06 17.04 Ю 1 50 км 5/1 1000 м
[Sc diur, vesp Ac trans Ci fib]
+2.9 -5.1 56 +2 +12 опасность
простуды
1015.8 961.0
09 17.04 Ю 1 50 км 1/1 1000 м
[Cu hum]
+6.3 -3.2 51 +6 +14 1012.7 958.9
12 17.04 В 1 50 км ясно +5.6 -2.1 58 +5 +6 1010.5 956.7 +10.9
15 17.04 З 1 50 км 6/0
[Ac trans]
+0.2 -1.8 86 -2 -2 1012.0 957.0
18 17.04 ЮЗ 3 50 км ясно -2.3 -2.6 98 -8 -8 1011.7 956.2
21 17.04 З 1 50 км ясно -5.3 -5.6 98 -8 -8 1008.6 952.7
00 18.04 З 1 50 км 10/10 1110 м
[Cb cap]
-3.5 -3.6 99 -6 -6 1004.6 949.3 -5.6 16
03 18.04 З 2 20 км 9/4 1000 м
[Cb cap Ac As]
+2.1 -0.4 84 -1 +1 998.2 944.6
06 18.04 З 11-20
{21}
4000 м дымка {ливн. осадки} 10/10 1110 м
[Cb cap]
+0.7 -2.6 79 -7 -7 1006.3 951.7
09 18.04 З 8-13
{20}
20 км {ливн. осадки} 8/8 1200 м
[Cb cap]
-1.0 -6.7 65 -8 -8 1014.1 958.7
12 18.04 З 8-14
{18}
4000 м слаб. ливневой снег 8/8 1000 м
[Cb cap]
-2.9 -7.8 69 -11 -11 1018.2 962.2 +5.5 0.4
15 18.04 З 11-19
{21}
21 км {ливн. осадки} 4/4 1000 м
[Cb cap]
-5.6 -13.8 52 -15 -15 1023.6 966.9
18 18.04 З 7-11
{16}
14 км {ливн. осадки} 3/3 1000 м
[Cb cap]
-6.4 -10.5 73 -15 -15 1027.1 970.0
21 18.04 З 6-10
{12}
30 км 8/8 1140 м
[Cb cap]
-7.1 -13.4 61 -15 -15 1030.6 973.0
00 19.04 ЮЗ 6-15
{17}
20 км 9/9 1170 м
[Cb cap]
-6.5 -12.5 62 -14 -14 1032.8 975.3 -7.9 0.4 12
03 19.04 З 6-12
{15}
50 км {ливн. осадки} 8/8 1140 м
[Cb cap]
-4.4 -11.9 56 -12 -11 1033.4 976.3
06 19.04 З 3
{12}
50 км 3/3 1000 м
[Sc]
-0.6 -10.9 46 -5 +3 1031.5 975.3
09 19.04 ЮВ 2 50 км 4/0
[Ci fib]
+1.2 -10.0 43 -1 +6 1027.8 972.2
12 19.04 В 3 50 км 8/0
[Ac trans Ci]
-0.3 -7.3 59 -5 -4 1025.1 969.2 +3.4 0.0
15 19.04 СВ 2 50 км 9/0
[Ac As]
-1.7 -8.2 61 -5 -5 1023.0 967.0
18 19.04 СВ 2 50 км 10/0
[Cs]
-3.7 -8.1 71 -8 -8 1020.8 964.7
21 19.04 СВ 1 50 км 10/0
[Ac As Cs]
-4.8 -8.4 76 -7 -7 1019.4 962.9
00 20.04 СВ 1 50 км 10/5 1000 м
[Cb cap Ac As]
-5.5 -8.5 79 -8 -8 1017.9 961.4 -6.2 10
03 20.04 СВ 2 50 км 10/0
[Ac As Cs]
-2.0 -8.6 61 -5 -1 1015.9 960.2
06 20.04 ЮВ 1 20 км 10/10 1170 м
[Cb cap]
+0.1 -6.6 61 -1 -1 1014.1 959.0
09 20.04 Ю 1 4000 м слаб. ливневой снег 10/10 1000 м
[Cb cap]
-0.4 -3.5 80 -2 -2 1012.9 957.7
12 20.04 ЮЗ 1 4000 м слаб. ливневой снег 10/10 1000 м
[Cb cap]
-1.1 -1.7 96 -3 -3 1011.7 956.4 +1.4 0.6
15 20.04 штиль 0 7000 м слаб. ливневой снег 10/10 1000 м
[Cb cap]
-0.9 -0.9 100 -2 -2 1010.7 955.6
18 20.04 ЮЗ 2 900 м ливневой снег 10/10 1000 м
[Cb cap]
-1.0 -1.1 99 -5 -5 1009.5 954.6
21 20.04 ЮЗ 2 10 км в посл. час ливневой снег 10/10 1110 м
[Cb cap]
-0.6 -0.7 99 -5 -5 1008.9 954.0
00 21.04 ЮЗ 1 20 км {ливн. осадки} 10/10 1110 м
[Cb cap]
-0.1 -0.1 100 -2 -2 1009.0 954.3 -1.1 3 18
03 21.04 З 3 300 м слаб. ливневой снег 10/10 1500 м
[Cb cap]
+1.7 +0.6 92 -3 -3 1013.9 959.0
06 21.04 З 5 20 км {ливн. осадки} 8/8 1200 м
[Cb cap]
+4.2 -2.3 63 -0 +1 1013.8 959.5
09 21.04 З 4 20 км в посл. час ливневой снег 9/8 1200 м
[Cb cap Ac trans]
+3.9 -2.3 64 -0 +1 1016.5 961.9
12 21.04 З 3 20 км {ливн. осадки} 10/8 1200 м
[Cb cap Ci fib]
+3.2 -1.9 69 -0 -0 1017.9 963.2 +4.2 0.0
15 21.04 З 4 50 км 4/1 1000 м
[Cb cap Ci fib]
+1.1 -2.4 77 -4 -4 1020.2 965.0
18 21.04 З 4 50 км 8/8 1140 м
[Cb cap]
+0.5 -2.8 79 -5 -5 1021.9 966.5
21 21.04 ЮЗ 4 50 км 8/8 1170 м
[Cb cap]
-0.2 -2.9 82 -6 -6 1021.8 966.2
00 22.04 ЮЗ 2 20 км {ливн. осадки} 8/3 1000 м
[Cb cap Ci fib]
-0.8 -1.8 93 -5 -4 1023.7 968.0 -1.0 0.0 8
03 22.04 З 0 10 км слаб. ливневой снег 10/10 1000 м
[Cb cap]
+2.9 -1.9 71 +2 +2 1024.2 969.0
06 22.04 З 0 20 км {ливн. осадки} 4/4 1000 м
[Cb cap]
+4.7 -2.6 59 +4 +15 опасность
простуды
1023.8 969.0
09 22.04 ЮЗ 0 50 км 9/8 1170 м
[Cb cap Ac trans]
+6.3 -2.9 52 +6 +7 1023.5 969.1
12 22.04 Ю 1 50 км 1/1 1000 м
[Cb cap]
+4.7 -3.7 54 +4 +5 1024.2 969.4 +7.8 0.0
15 22.04 штиль 0 50 км ясно +0.7 -1.9 83 -0 -0 1025.9 970.2

 

Местоположение метеостанции Таштып (Хакасия, Россия): широта 52.80 долгота 89.88 высота над уровнем моря 450 м.

В архиве по умолчанию представлена погода в Таштыпе за последнюю неделю. Архивные данные за месяц целиком и за предыдущие месяцы, начиная с января 2011 года, Вы можете получить, выбрав интересующий диапазон дат из раскрывающегося списка и нажав кнопку "Ввод!".


*Определитесь, кто Вы:
робот инопланетянин человек

Внимание! Время в таблицах - всемирное. Для получения местного времени необходимо прибавить поправку, которая равна 7 ч.

Смотрите также архив погоды в соседних городах и на ближайших метеорологических станциях:

Погода в Мантуре (Хакасия, Россия) (32 км)
Погода в Аскизе (Хакасия, Россия) (54 км)
Погода в Бее (Хакасия, Россия) (75 км)
Погода в Неожиданном (Хакасия, Россия) (76 км)
Погода в Большом Оне (Хакасия, Россия) (83 км)
Погода в Кантегире (Хакасия, Россия) (86 км)
Погода в Усть-Кабырзе (Кемеровская область, Россия) (96 км)
Погода в Карловом Створе (Хакасия, Россия) (100 км)
Погода в Черемушках (Хакасия, Россия) (101 км)
Погода в Уйбате (Хакасия, Россия) (107 км)

Пояснения к столбцам:

Ветер - указаны скорость ветра в м/с - средняя за 10 мин, порывы в срок и между сроками (в фигурных скобках) и направление, откуда дует ветер: С - северный, СВ - северо-восточный, В - восточный, ЮВ - юго-восточный, Ю - южный, ЮЗ - юго-западный, З - западный, СЗ - северо-западный.
Видимость - горизонтальная дальность видимости в метрах или километрах. При видимости от 1 до 10 км при отсутствии осадков обычно наблюдается дымка, при ухудшении видимости до 1 км и менее - туман. В сухую погоду видимость может ухудшаться дымом, пылью или мглою.
Явления - указаны атмосферные явления, наблюдавшиеся в срок или в последний час перед сроком; фигурными скобками обозначены явления, наблюдавшиеся между сроками (за 1-3 часа до срока); квадратными скобками обозначены град или гололедные отложения с указанием их диаметра в мм.
Облачность - указаны через наклонную черту общая и нижняя облачность в баллах и высота нижней границы облаков в метрах; квадратными скобками обозначены формы облаков: Ci - перистые, Cs - перисто-слоистые, Cc - перисто-кучевые, Ac - высококучевые, As - высокослоистые, Sc - слоисто-кучевые, Ns - слоисто-дождевые, Cu - кучевые, Cb - кучево-дождевые. Подробнее классификацию облаков см. в Атласе облаков (PDF).
T - Температура воздуха - температура, измеренная на высоте 2 м над землей.
Td - Температура точки росы - температура, при понижении до которой содержащийся в воздухе водяной пар достигнет насыщения.
f - Относительная влажность воздуха - влажноcть воздуха, измеренная на высоте 2 м над землей.
Te - Эффективная температура - температура, которую ощущает одетый по сезону человек в тени. Характеристика душности погоды. При расчете учитывается влияние влажности воздуха и скорости ветра на теплоощущения человека.
Tes - Эффективная температура на солнце - температура, которую ощущает человек, с поправкой на солнечный нагрев. Характеристика знойности погоды. Зависит от высоты солнца над горизонтом, облачности и скорости ветра. Ночью, в пасмурную погоду, а также при ветре 12 м/с и более поправка равна нулю.
P - Атмосферное давление - приведенное к уровню моря атмосферное давление.
Po - Атмосферное давление - измеренное на уровне метеостанции атмосферное давление.
Tmin - Минимальная температура - минимум температуры воздуха на высоте 2 м над землей.
Tmax - Максимальная температура - максимум температуры воздуха на высоте 2 м над землей.
R - Количество осадков - Количество выпавших осадков за период времени, мм. При наведении курсора мыши на число - период времени, за который выпало указанное количество осадков.
R24 - Количество осадков - Количество выпавших осадков за 24 часа, мм.
S - Снежный покров - Высота снежного покрова, см. При наведении курсора мыши на число - состояние снежного покрова и степень покрытия местности в баллах.